Voltar ao catálogo

ONDOSAT-OWL-12

AtivoRádio AmadorVLEO
NORAD 62403·PAYLOAD·🇲🇳 Mongolia
Este nome de satélite ainda não foi confirmado por fontes oficiais.

Lançado Dec 21, 2024 de Vandenberg Space Force Base

Loading…

Próximas Passagens (próximas 24 horas)

TLE

AtualizadoSource: Space-Track

Época: Sep 14, 2026, 22:19 UTC

1 62403U 24247AC  26257.93011603  .00028109  00000-0  64152-3 0  9990
2 62403  45.0008 136.3140 0003663 170.1663 189.9298 15.42432800 97005

Acompanhe ONDOSAT-OWL-12 em tempo real com AllMySat

Download on the App Store